• MPC Preparation (Info)

  • MPEC 2011-B37 : 2011 BX11

    The following Minor Planet Electronic Circular may be linked-to from your own Web pages, but must not otherwise be redistributed electronically.

    A form allowing access to any MPEC is at the bottom of this page.


    Read MPEC 2011-B36 Read MPEC 2011-B38


    M.P.E.C. 2011-B37                                Issued 2011 Jan. 26, 19:37 UT
    
         The Minor Planet Electronic Circulars contain information on unusual
             minor planets and routine data on comets.  They are published
       on behalf of Commission 20 of the International Astronomical Union by the
              Minor Planet Center, Smithsonian Astrophysical Observatory,
                              Cambridge, MA 02138, U.S.A.
    
                 Prepared using the Tamkin Foundation Computer Network
    
                                  MPC@CFA.HARVARD.EDU
           URL https://www.minorplanetcenter.org/iau/mpc.html  ISSN 1523-6714
    
                                       2011 BX11
    
    Observations:
         K11B11X* C2011 01 26.35005 09 04 57.18 +22 36 59.4          19.2 VrEB037G96
         K11B11X  C2011 01 26.35699 09 04 59.08 +22 37 41.0          19.2 VrEB037G96
         K11B11X  C2011 01 26.36400 09 05 01.03 +22 38 22.9          19.3 VrEB037G96
         K11B11X  C2011 01 26.37100 09 05 02.97 +22 39 05.0          19.5 VrEB037G96
         K11B11X  C2011 01 26.43973 09 05 22.12 +22 45 54.0          18.7 VrEB037G96
         K11B11X  C2011 01 26.44409 09 05 23.35 +22 46 19.8          19.1 VrEB037G96
         K11B11X  C2011 01 26.44626 09 05 23.96 +22 46 32.5          19.2 VrEB037G96
    
    Observer details:
    G96 Mt. Lemmon Survey.  Observer S. M. Larson.  Measurers J. D. Ahern,
        E. C. Beshore, A. Boattini, G. J. Garradd, A. R. Gibbs, A. D. Grauer,
        R. E. Hill, R. A. Kowalski, S. M. Larson, R. H. McNaught.  1.5-m reflector
        + CCD.
    
    Orbital elements:
    2011 BX11                                                Earth MOID = 0.1267 AU
    Epoch 2011 Feb. 8.0 TT = JDT 2455600.5                  MPC
    M   7.56661              (2000.0)            P               Q
    n   0.36124726     Peri.  354.53545     -0.47649757     -0.85814381
    a   1.9525388      Node   123.78327     +0.81508963     -0.51268541
    e   0.4314519      Incl.   13.29627     +0.32951322     +0.02725574
    P   2.73           H   22.8           G   0.15           U   9
    Residuals in seconds of arc
    110126 G96  0.1+  0.0     110126 G96  0.0   0.1+    110126 G96  0.0   0.1-
    110126 G96  0.2-  0.0     110126 G96  0.0   0.0
    110126 G96  0.0   0.1-    110126 G96  0.0   0.0
    
    Ephemeris:
    2011 BX11                a,e,i = 1.95, 0.43, 13                  q = 1.1101
    Date    TT    R. A. (2000) Decl.     Delta      r     Elong.  Phase     V
    2010 12 27    07 07 20.5 -16 26 23   0.1920  1.1348   138.7    34.9    20.9
    ...
    2011 01 11    07 54 41.4 -02 48 29   0.1414  1.1127   154.4    22.4    19.9
    ...
    2011 01 19    08 29 00.5 +09 49 03   0.1290  1.1101   167.5    11.1    19.3
    ...
    2011 01 25    08 58 10.5 +20 19 51   0.1291  1.1126   172.6     6.5    19.1
    2011 01 26    09 03 11.5 +22 01 53   0.1300  1.1134   171.9     7.1    19.1
    2011 01 27    09 08 13.7 +23 41 44   0.1311  1.1142   170.9     8.1    19.2
    ...
    2011 02 02    09 38 13.7 +32 35 14   0.1421  1.1216   162.2    15.5    19.7
    ...
    2011 02 10    10 14 48.0 +40 49 46   0.1667  1.1368   152.2    23.9    20.3
    ...
    2011 02 25    11 03 10.4 +47 07 52   0.2323  1.1806   141.6    31.4    21.3
    
    Sonia Keys                   (C) Copyright 2011 MPC           M.P.E.C. 2011-B37
    

    Read MPEC 2011-B36 Read MPEC 2011-B38


    MPEC number:

    Enter an MPEC number in one of the following forms:

    • 1997-B01 (the full form)
    • J97B01 (the packed version of the full form)
    • B01 (the abbreviated form)